PY3MO-11 Weather Reports


time (UTC)temp
C
wind
direction
speed
KPH
gust
KPH
rain 1hr
cm
rain 24hr
cm
rain mn
cm
humidity
%
barometer
mb
20260507203356 23 250 3.2 9.7 0.00 0.00 0.00 54 1006.0
20260507202856 24 251 6.4 9.7 0.00 0.00 0.00 54 1006.0
20260507202357 24 244 4.8 9.7 0.00 0.00 0.00 54 1006.0
20260507201857 24 171 4.8 9.7 0.00 0.00 0.00 54 1005.8
20260507201356 24 210 1.6 14.5 0.00 0.00 0.00 53 1005.9
20260507200856 25 260 4.8 14.5 0.00 0.00 0.00 52 1006.0
20260507200355 25 221 8.0 14.5 0.00 0.00 0.00 52 1006.0
20260507195857 25 195 9.7 14.5 0.00 0.00 0.00 50 1006.0
20260507195356 26 232 4.8 16.1 0.00 0.00 0.00 50 1005.7
20260507194856 26 243 4.8 16.1 0.00 0.00 0.00 50 1005.9
20260507194356 26 199 8.0 14.5 0.00 0.00 0.00 50 1006.0
20260507193856 26 216 8.0 19.3 0.00 0.00 0.00 50 1006.0
20260507193355 25 195 9.7 19.3 0.00 0.00 0.00 51 1006.2
20260507192855 25 214 6.4 14.5 0.00 0.00 0.00 51 1006.0
20260507192355 25 236 4.8 14.5 0.00 0.00 0.00 51 1006.1
20260507191855 25 243 8.0 16.1 0.00 0.00 0.00 51 1005.8
20260507191356 25 256 4.8 25.7 0.00 0.00 0.00 51 1005.9
20260507190856 25 236 9.7 25.7 0.00 0.00 0.00 50 1006.0
20260507190356 25 173 8.0 17.7 0.00 0.00 0.00 50 1005.9
20260507185855 25 221 4.8 17.7 0.00 0.00 0.00 50 1005.7
20260507185356 25 289 6.4 19.3 0.00 0.00 0.00 49 1005.6
20260507184855 25 305 12.9 19.3 0.00 0.00 0.00 49 1005.7
20260507184355 25 245 9.7 17.7 0.00 0.00 0.00 49 1005.5
20260507183855 25 210 8.0 22.5 0.00 0.00 0.00 49 1005.5
20260507183357 25 208 9.7 22.5 0.00 0.00 0.00 48 1005.4
20260507182857 25 224 4.8 14.5 0.00 0.00 0.00 48 1005.4
20260507182356 25 232 8.0 20.9 0.00 0.00 0.00 47 1005.5
20260507181856 25 256 6.4 24.1 0.00 0.00 0.00 45 1005.4
20260507181356 26 252 14.5 24.1 0.00 0.00 0.00 44 1005.6
20260507180856 26 239 16.1 30.6 0.00 0.00 0.00 44 1005.6
20260507180356 26 236 12.9 30.6 0.00 0.00 0.00 43 1005.8
20260507175856 26 237 16.1 30.6 0.00 0.00 0.00 43 1005.7
20260507175355 26 241 14.5 19.3 0.00 0.00 0.00 44 1005.8
20260507174855 26 225 12.9 19.3 0.00 0.00 0.00 44 1005.5
20260507174355 26 248 9.7 22.5 0.00 0.00 0.00 45 1005.6
20260507173857 26 338 8.0 22.5 0.00 0.00 0.00 45 1005.7
20260507173357 25 282 9.7 17.7 4.67 0.00 0.00 47 1005.6
20260507172857 25 281 8.0 17.7 4.67 0.00 0.00 48 1005.8
20260507172355 25 278 9.7 14.5 0.00 0.00 0.00 48 1005.8
20260507171856 25 287 11.3 17.7 0.00 0.00 0.00 47 1005.7
20260507171356 25 274 6.4 24.1 0.00 0.00 0.00 47 1005.8
20260507170856 26 266 4.8 24.1 0.00 0.00 0.00 45 1005.9
20260507170356 26 260 19.3 24.1 0.00 0.00 0.00 44 1006.1
20260507165856 26 253 6.4 14.5 0.00 0.00 0.00 46 1005.9
20260507165356 25 270 9.7 22.5 0.00 0.00 0.00 47 1006.2
20260507164855 25 271 9.7 22.5 0.00 0.00 0.00 47 1006.3
20260507164355 25 265 14.5 24.1 0.00 0.00 0.00 47 1006.4
20260507163857 25 70 6.4 77.2 0.00 0.00 0.00 47 1006.5
20260507163357 25 69 4.8 77.2 0.00 0.00 0.00 48 1006.7
20260507162857 26 83 6.4 77.2 0.00 0.00 0.00 48 1006.5
20260507162356 26 181 12.9 19.3 0.00 0.00 0.00 47 1006.3
20260507161856 26 269 9.7 19.3 0.00 0.00 0.00 45 1006.8
20260507161356 26 269 9.7 19.3 0.00 0.00 0.00 45 1006.8
20260507160856 26 261 9.7 19.3 0.00 0.00 0.00 45 1006.8
20260507160356 26 232 9.7 27.4 0.00 0.00 0.00 45 1006.7
20260507155856 26 220 14.5 27.4 0.00 0.00 0.00 45 1006.7
20260507155357 26 235 16.1 27.4 0.00 0.00 0.00 46 1006.5
20260507154856 26 272 11.3 20.9 0.00 0.00 0.00 50 1007.1
20260507154356 26 291 9.7 20.9 0.00 0.00 0.00 50 1006.9
20260507153856 25 259 14.5 20.9 0.00 0.00 0.00 52 1007.2
20260507153356 25 267 6.4 22.5 0.00 0.00 0.00 53 1007.1
20260507152856 26 272 9.7 22.5 0.00 0.00 0.00 53 1007.2
20260507152356 26 228 9.7 22.5 0.00 0.00 0.00 53 1007.3
20260507151858 26 240 16.1 22.5 0.00 0.00 0.00 53 1007.4
20260507151356 25 237 8.0 20.9 0.00 0.00 0.00 53 1007.6
20260507150857 25 201 9.7 20.9 0.00 0.00 0.00 54 1007.5
20260507150357 25 224 9.7 22.5 0.00 0.00 0.00 54 1007.6
20260507145857 25 229 8.0 25.7 0.00 0.00 0.00 54 1007.8
20260507145357 25 221 14.5 25.7 0.00 0.00 0.00 55 1007.9
20260507144856 25 244 9.7 25.7 0.00 0.00 0.00 57 1008.0
20260507144356 25 256 9.7 25.7 0.00 0.00 0.00 57 1008.2
20260507143856 25 235 4.8 19.3 0.00 0.00 0.00 60 1008.5
20260507143356 24 245 9.7 19.3 0.00 0.00 0.00 60 1008.7
20260507142856 23 149 14.5 20.9 0.00 0.00 0.00 61 1009.2
20260507142356 23 231 9.7 20.9 0.00 0.00 0.00 62 1009.2
20260507141855 22 265 9.7 16.1 0.00 0.00 0.00 63 1009.2
20260507141355 22 296 6.4 11.3 0.00 0.00 0.00 64 1009.2
20260507140857 22 298 9.7 20.9 0.00 0.00 0.00 64 1009.2
20260507140357 22 272 8.0 20.9 0.00 0.00 0.00 64 1009.5
20260507135857 22 270 9.7 14.5 0.00 0.00 0.00 64 1009.7
20260507135357 22 254 9.7 14.5 0.00 0.00 0.00 64 1009.9
20260507134856 22 209 6.4 24.1 0.00 0.00 0.00 64 1010.0
20260507134356 22 214 6.4 24.1 0.00 0.00 0.00 64 1010.1
20260507133856 22 224 17.7 24.1 0.00 0.00 0.00 70 1010.0
20260507133356 22 217 9.7 24.1 0.00 0.00 0.00 70 1010.1
20260507132856 21 213 9.7 24.1 0.00 0.00 0.00 70 1010.5
20260507132356 21 226 9.7 22.5 0.00 0.00 0.00 70 1010.6
20260507131855 21 263 12.9 19.3 0.00 0.00 0.00 71 1010.4
20260507131355 21 282 9.7 14.5 0.00 0.00 0.00 70 1010.5
20260507130900 22 274 6.4 19.3 0.00 0.00 0.00 70 1010.9
20260507130357 22 283 6.4 19.3 0.00 0.00 0.00 70 1010.8
20260507125857 22 277 14.5 19.3 0.00 0.00 0.00 70 1010.7
20260507125357 22 224 6.4 17.7 0.00 0.00 0.00 70 1010.8
20260507124857 22 236 9.7 17.7 0.00 0.00 0.00 70 1011.0
20260507124356 22 264 9.7 14.5 0.00 0.00 0.00 71 1011.0
20260507123856 21 254 9.7 14.5 0.00 0.00 0.00 71 1010.8
20260507123356 21 227 9.7 14.5 0.00 0.00 0.00 71 1010.9
20260507122856 21 260 9.7 14.5 0.00 0.00 0.00 72 1010.8
20260507122356 21 285 11.3 14.5 0.00 0.00 0.00 72 1011.0
20260507121855 21 251 9.7 16.1 0.00 0.00 0.00 72 1011.0
20260507121355 21 197 6.4 16.1 0.00 0.00 0.00 72 1011.1
20260507120857 21 175 6.4 16.1 0.00 0.00 0.00 72 1011.1
20260507120357 21 203 8.0 17.7 0.00 0.00 0.00 72 1011.1
20260507115857 21 198 4.8 22.5 0.00 0.00 0.00 72 1011.3
20260507115357 21 200 4.8 22.5 0.00 0.00 0.00 72 1011.2
20260507114855 21 221 11.3 17.7 0.00 0.00 0.00 72 1011.1
20260507114355 21 219 9.7 17.7 0.00 0.00 0.00 72 1010.8
20260507113857 21 205 9.7 17.7 0.00 0.00 0.00 72 1010.9
20260507113357 21 207 11.3 19.3 0.00 0.00 0.00 72 1010.8
20260507112857 21 240 9.7 19.3 0.00 0.00 0.00 72 1011.0
20260507112357 21 236 8.0 17.7 0.00 0.00 0.00 72 1011.0
20260507111857 21 206 9.7 17.7 0.00 0.00 0.00 73 1010.8
20260507111355 21 223 9.7 14.5 0.00 0.00 0.00 75 1010.9
20260507110857 20 207 9.7 14.5 0.00 0.00 0.00 75 1011.1
20260507110357 20 222 4.8 11.3 0.00 0.00 0.00 76 1011.3
20260507105857 20 233 8.0 11.3 0.00 0.00 0.00 77 1011.3
20260507105357 20 249 4.8 9.7 0.00 0.00 0.00 77 1011.3
20260507022357 19 89 3.2 6.4 0.00 0.00 0.00 80 1015.9
20260507021856 19 96 0.0 3.2 0.00 0.00 0.00 80 1016.0
20260507021356 19 90 0.0 1.6 0.00 0.00 0.00 80 1015.9
20260507020856 19 90 0.0 1.6 0.00 0.00 0.00 80 1016.0
20260507020356 19 101 0.0 1.6 0.00 0.00 0.00 80 1016.2
20260507015858 19 97 0.0 1.6 0.00 0.00 0.00 79 1016.2
20260507015358 19 80 0.0 3.2 0.00 0.00 0.00 79 1016.3
20260507014858 19 5 0.0 4.8 0.00 0.00 0.00 80 1016.3
20260507014357 19 55 0.0 4.8 0.00 0.00 0.00 81 1016.4
20260507013857 19 114 0.0 1.6 0.00 0.00 0.00 82 1016.1
20260507013357 18 104 0.0 0.0 0.00 0.00 0.00 82 1016.2
20260507012858 18 115 0.0 0.0 0.00 0.00 0.00 83 1016.3
20260507012358 18 90 0.0 0.0 0.00 0.00 0.00 83 1016.2
20260507011858 18 324 0.0 0.0 0.00 0.00 0.00 82 1016.4
20260507011357 18 0 0.0 0.0 0.00 0.00 0.00 82 1016.4
20260507010857 18 0 0.0 0.0 0.00 0.00 0.00 82 1016.3
20260507010357 18 90 0.0 0.0 0.00 0.00 0.00 81 1016.4
20260507005857 19 90 0.0 0.0 0.00 0.00 0.00 81 1016.3
20260507005357 19 90 0.0 0.0 0.00 0.00 0.00 81 1016.4
20260507004857 19 90 0.0 0.0 0.00 0.00 0.00 81 1016.4
20260507004356 19 90 0.0 1.6 0.00 0.00 0.00 82 1016.6
20260507003856 19 101 0.0 1.6 0.00 0.00 0.00 82 1016.4
20260507003356 18 104 0.0 0.0 0.00 0.00 0.00 83 1016.5
20260507002858 18 90 0.0 1.6 0.00 0.00 0.00 83 1016.6
20260507002358 18 90 0.0 1.6 0.00 0.00 0.00 83 1016.6
20260507001858 18 90 0.0 1.6 0.00 0.00 0.00 83 1016.7
20260507001358 18 90 0.0 0.0 0.00 0.00 0.00 83 1016.5
20260507000857 18 0 0.0 0.0 0.00 0.00 0.00 82 1016.6
20260507000358 18 0 0.0 0.0 0.00 0.00 0.00 82 1016.7
20260506235857 19 90 0.0 0.0 0.00 0.00 0.00 82 1016.6
20260506235357 19 90 0.0 0.0 0.00 0.00 0.00 81 1016.6
20260506234857 19 0 0.0 0.0 0.00 0.00 0.00 81 1016.6
20260506234357 19 0 0.0 0.0 0.00 0.00 0.00 81 1016.5
20260506233857 19 0 0.0 0.0 0.00 0.00 0.00 80 1016.7
20260506233356 20 0 0.0 0.0 0.00 0.00 0.00 80 1016.8
20260506232856 20 0 0.0 0.0 0.00 0.00 0.00 80 1016.7
20260506232358 20 0 0.0 0.0 0.00 0.00 0.00 79 1016.6
20260506231858 20 90 0.0 0.0 0.00 0.00 0.00 79 1016.7
20260506231358 20 90 0.0 0.0 0.00 0.00 0.00 79 1016.7
20260506230858 20 90 0.0 0.0 0.00 0.00 0.00 79 1016.5
20260506230357 20 90 0.0 0.0 0.00 0.00 0.00 78 1016.5
20260506225857 20 90 0.0 0.0 0.00 0.00 0.00 78 1016.5
20260506225357 20 68 0.0 0.0 0.00 0.00 0.00 78 1016.6
20260506224857 20 30 0.0 0.0 0.00 0.00 0.00 77 1016.6
20260506224357 20 90 0.0 0.0 0.00 0.00 0.00 76 1016.6
20260506223857 20 90 0.0 0.0 0.00 0.00 0.00 76 1016.7
20260506223357 20 341 0.0 0.0 0.00 0.00 0.00 76 1016.7
20260506222856 20 327 0.0 0.0 0.00 0.00 0.00 76 1016.8
20260506222356 20 319 0.0 0.0 0.00 0.00 0.00 76 1016.8
20260506221858 21 314 0.0 0.0 0.00 0.00 0.00 75 1016.6
20260506221358 21 90 0.0 0.0 0.00 0.00 0.00 74 1016.7
20260506220857 21 90 0.0 0.0 0.00 0.00 0.00 73 1016.7
20260506220357 21 0 0.0 0.0 0.00 0.00 0.00 73 1016.6
20260506215857 21 88 0.0 0.0 0.00 0.00 0.00 72 1016.6
20260506215356 21 40 0.0 1.6 0.00 0.00 0.00 71 1016.8
20260506214858 22 35 0.0 1.6 0.00 0.00 0.00 71 1016.7
20260506214357 22 85 0.0 0.0 0.00 0.00 0.00 70 1016.5
20260506213857 22 96 0.0 0.0 0.00 0.00 0.00 70 1016.6
20260506213357 22 93 0.0 0.0 0.00 0.00 0.00 65 1016.5
20260506212857 22 115 0.0 1.6 0.00 0.00 0.00 65 1016.5
20260506212356 22 113 0.0 1.6 0.00 0.00 0.00 64 1016.5
20260506211856 22 93 0.0 0.0 0.00 0.00 0.00 64 1016.5
20260506211358 23 81 0.0 0.0 0.00 0.00 0.00 64 1016.7
20260506210858 23 98 0.0 1.6 0.00 0.00 0.00 62 1016.6
20260506210358 23 113 0.0 1.6 0.00 0.00 0.00 62 1016.5
20260506205858 23 152 0.0 1.6 0.00 0.00 0.00 62 1016.5
20260506205357 23 170 0.0 1.6 0.00 0.00 0.00 62 1016.4
20260506204857 23 85 0.0 1.6 0.00 0.00 0.00 62 1016.5
20260506204357 23 86 0.0 1.6 0.00 0.00 0.00 61 1016.4
20260506203857 24 163 1.6 1.6 0.00 0.00 0.00 61 1016.5